Location: Springfield
(37.2150°N, 93.2980°W)
Time: 19:01:14
(UTC-05:00)

USA 267 - Pass Details

Date: 19 April 2018
Orbit: 1101 x 1106 km, 123.0° (Epoch: 21 May)

Event Time Altitude Azimuth Distance (km) Brightness Sun altitude
Rises 21:49:33 0° 47° (NE) 3,920 6.0 -22.0°
Reaches altitude 10° 21:52:05 10° 51° (NE) 2,960 5.4 -22.4°
Maximum altitude 21:58:31 60° 131° (SE) 1,242 3.2 -23.4°
Drops below altitude 10° 22:04:56 10° 211° (SSW) 2,948 5.4 -24.4°
Sets 22:07:27 0° 214° (SW) 3,903 6.1 -24.8°
